Regional Weather Roundup
Issued by NWS

Home | Current Version | Previous Version | Text Only | Print | Product List | Glossary On
Versions: 1 2 3 4 5 6 7 8 9 10 11 12 13 14 15 16 17 18 19 20 21 22 23 24 25 26 27 28 29 30 31 32 33 34 35 36 37 38 39 40 41 42 43 44 45 46 47 48 49 50
000
ASUS43 KLSX 021810
RWRMO

WEATHER SUMMARY FOR MISSOURI
NATIONAL WEATHER SERVICE SPRINGFIELD MO
1200 PM CST FRI DEC 02 2016

NOTE: "FAIR" INDICATES FEW OR NO CLOUDS BELOW 12,000 FEET WITH NO
       SIGNIFICANT WEATHER AND/OR OBSTRUCTIONS TO VISIBILITY.
       CURRENT SKY AND/OR WEATHER CONDITIONS ARE NOT AVAILABLE FOR
       CHILLICOTHE AND FARMINGTON.

MOZ001>031-035>038-043-044-053-054-021900-
...NORTHERN AND WESTERN MISSOURI...

CITY           SKY/WX    TMP DP  RH WIND       PRES   REMARKS
KANSAS CTY INT MOSUNNY   45  27  49 NE5       30.28S
6HR MIN TEMP:  25; 6HR MAX TEMP:  46;

KANSAS C DTWN  SUNNY     46  29  51 CALM      30.28F
6HR MIN TEMP:  26; 6HR MAX TEMP:  47;

LEE`S SUMMIT   SUNNY     47  26  44 VRB5      30.28S
6HR MIN TEMP:  27; 6HR MAX TEMP:  47;

ST JOSEPH      SUNNY     41  28  60 CALM      30.30S
6HR MIN TEMP:  19; 6HR MAX TEMP:  41;

CHILLICOTHE      N/A     44  31  60 CALM      30.29F
6HR MIN TEMP:  20; 6HR MAX TEMP:  44; 6HR PCP:  0.07;

KIRKSVILLE     MOSUNNY   43  30  60 NW5       30.26F
6HR MIN TEMP:  22; 6HR MAX TEMP:  43;


$$
MOZ066>068-077>081-088>096-101>105-021900-
...SOUTHWEST MISSOURI...

CITY           SKY/WX    TMP DP  RH WIND       PRES   REMARKS
SPRINGFIELD    SUNNY     54  23  30 VRB6      30.23F
6HR MIN TEMP:  31; 6HR MAX TEMP:  54;

JOPLIN         SUNNY     55  27  34 E6        30.24F
6HR MIN TEMP:  35; 6HR MAX TEMP:  55;

BRANSON        MOSUNNY   54  28  37 E3        30.24F

$$
MOZ032>034-039>042-045>050-055>058-069>072-021900-
...CENTRAL MISSOURI...

CITY           SKY/WX    TMP DP  RH WIND       PRES   REMARKS
COLUMBIA       SUNNY     45  27  49 NW7       30.27S
6HR MIN TEMP:  25; 6HR MAX TEMP:  45;

JEFFERSON CITY SUNNY     46  28  49 VRB5      30.28F
6HR MIN TEMP:  26; 6HR MAX TEMP:  46;

ROLLA          SUNNY     47  27  45 CALM      30.26R
6HR MIN TEMP:  28; 6HR MAX TEMP:  49;

SEDALIA        SUNNY     49  28  44 N8        30.29R
6HR MIN TEMP:  32; 6HR MAX TEMP:  49;

WHITEMAN AFB   MOSUNNY   47  26  45 N3        30.27S
WARRENSBURG    SUNNY     46  28  49 N6        30.28S
OSAGE BEACH    SUNNY     51  26  37 CALM      30.28S

$$
MOZ051-052-059>065-021900-
...EAST CENTRAL MISSOURI...

CITY           SKY/WX    TMP DP  RH WIND       PRES   REMARKS
ST LOUIS INTL  MOSUNNY   46  28  49 NW9       30.28R
6HR MIN TEMP:  28; 6HR MAX TEMP:  46;

SPIRIT OF STL  SUNNY     47  29  49 N7        30.27S
6HR MIN TEMP:  23; 6HR MAX TEMP:  47;

ST CHARLES     SUNNY     45  30  55 NW7       30.27S
6HR MIN TEMP:  24; 6HR MAX TEMP:  46;


$$
MOZ072>076-082>087-097>100-106>115-021900-
...SOUTH CENTRAL AND SOUTHEAST MISSOURI...

CITY           SKY/WX    TMP DP  RH WIND       PRES   REMARKS
CAPE GIRARDEAU SUNNY     47  31  53 VRB3      30.27F
6HR MIN TEMP:  27; 6HR MAX TEMP:  47;

FARMINGTON     SUNNY     48  29  47 NW7       30.26F
6HR MIN TEMP:  23; 6HR MAX TEMP:  48;

POPLAR BLUFF   SUNNY     50  31  48 VRB5      30.27F
6HR MIN TEMP:  27; 6HR MAX TEMP:  50;

WEST PLAINS    SUNNY     52  27  38 CALM      30.26F
6HR MIN TEMP:  28; 6HR MAX TEMP:  52;


$$




USA.gov is the U.S. government's official web portal to all federal, state and local government web resources and services.